sat.trackr.live / text

‹ back to catalog

STARLINK-34617

NORAD 65015 · 2025-161A

PAYLOAD ACTIVE UNKNOWN

§ Identity

Operator
Country
US
Launch date
2025-07-30
Launch site
AFWTR
Launch vehicle
Mass (kg)
RCS (m²)

Purposes: comms

External: N2YO · Heavens-Above · Gunter

§ Orbital elements

Epoch: 2026-09-20T22:05:55.413600Z

Period
91.41 min
Inclination
53.1576°
Eccentricity
0.0000759
Mean motion
15.75270873 rev/d
Perigee alt
343.4 km
Apogee alt
344.4 km
Semi-major
6,722.0 km
B*
8.6143e-4
RAAN
73.2649°
Arg perigee
87.9412°
Mean anomaly
272.1696°
Rev number
2,293

§ Raw data

STARLINK-346171 65015U 25161A   26263.92078025  .00133700  00000+0  86143-3 0  99922 65015  53.1576  73.2649 0000759  87.9412 272.1696 15.75270873 22933

JSON: /api/v1/satellites/65015 · /tle

For live sub-satellite position, see the globe view (requires WebGL).

§ Visibility from observer

Set your observer location to see the next 7 days of passes ≥ 10°. The values pass through the URL so the page stays shareable.

No JS? Fill the form by hand. The geolocation button needs JavaScript.